Powrót do katalogu

METEOR 1-5 DEB

AktywnyPO
NORAD 58399·DEBRIS·🇷🇺 Russia

Wystrzelony Jun 23, 1970 z Plesetsk Cosmodrome

Loading…

Następne Przeloty (najbliższe 24 godziny)

TLE

ŚwieżeSource: Space-Track

Epoka: Sep 13, 2026, 16:58 UTC

1 58399U 70047F   26256.70753504  .00000919  00000-0  50104-3 0  9996
2 58399  81.2223 160.7045 0023384 336.9409  23.0711 14.11299591148482

Śledź METEOR 1-5 DEB w czasie rzeczywistym z AllMySat

Download on the App Store